NOAA 16 DEB, 41419

Orbit data source: Space-Track

NOAA 16 DEB, 41419 is space debris in SSO originally from a launch on Thu, 21 Sep 2000 UTC launched from the Air Force Western Test Range (AFWTR). Debris objects in space refer to the collection of defunct objects orbiting the Earth. Examples of debris include non-operational satellites, rocket bodies, and fragments generated from explosions, collisions, or faulty payload assembly.

Loading next visibility...
Identifier
41419, 2000-055KY
Orbit
SSO
Country
Flag of USUS
Related business
Manufacturer
Unknown
Mission
Spacecraft
Bus & Motor
Unknown
Mass
Unknown
Launch date (UTC)
2000-09-21 (25 years ago)
Launch vehicle
Unknown
Launch site
Air Force Western Test Range (AFWTR)
Object type
Payload
Rocket body
Debris
Shape & HBR
Unknown shape, 0.1 m
Radar Cross Section
Small (<0.1 m²)

Expand to show TLE details & history
Last TLE update: 22 hours ago

TLE from 22 hours ago
0 NOAA 16 DEB
1 41419U 00055KY  25292.79483137  .00047298  00000-0  10415-1 0  9993
2 41419  98.8536  49.9160 0010746  96.2376 264.0045 14.57156909499628
Epoch: 2025-10-19T19:04Z
TLE epoch observation values (Epoch: 2025-10-19T19:04:33.430Z)
Latitude
-0°
Longitude
95.27033°
Altitude
706.132 km
Speed
7.502 km/s
True Right ascension
03h 19m 39s
True Declination
0° 00' 00"
Sunlit
Object was in full shadow at epoch
Visualization orbit readout
Latitude
Unknown
Longitude
Unknown
Altitude
Unknown
Speed
Unknown
Apparent Right ascension
Unknown
Apparent Declination
Unknown
Sunlit
N/A
Visualization observer readout
Local Sidereal Time
11:38:05
Azimuth
Unknown
Elevation
Unknown
Doppler factor
Unknown
Orbital elements
Apogee altitude
707.091 km
Perigee altitude
691.88 km
Semi-major axis
7,077.622 km
Eccentricity
0.00107
Inclination
98.8536°
RAAN
49.916°
Arg. of periapsis
96.2376°
True anomaly
263.88205°
Mean anomaly
264.0045°
Eccentric anomaly
263.94327°
Mean motion
3.64512 °/min
Orbital period
98.76 mins
BSTAR
0.010415
Loading maneuver chart data...
Computing Atmospheric mass density...
Loading historical data...
Loading historical data...
Loading historical data...
Loading historical data...
Loading historical data...
Loading historical data...
Loading historical data...

Documentation

Showing up to 5 results
|